FW0887 Weather Reports


Display with metric or nautical units.
time (UTC)temp
F
wind
direction
speed
MPH
gust
MPH
rain 1hr
in
rain 24hr
in
rain mn
in
humidity
%
barometer
mb
20260504044540 57 209 0.0 1.0 0.00 0.00 0.00 69 1013.8
20260504043041 57 209 0.0 0.0 0.00 0.00 0.00 69 1013.8
20260504041543 58 203 1.0 1.0 0.00 0.00 0.00 69 1015.3
20260504041539 57 209 0.0 1.0 0.00 0.00 0.00 68 1013.6
20260504040044 57 209 0.0 0.0 0.00 0.00 0.00 68 1013.7
20260504034542 57 208 0.0 1.0 0.00 0.00 0.00 67 1013.8
20260504033039 58 209 0.0 1.0 0.00 0.00 0.00 67 1014.0
20260504031833 58 0.0 0.0 0.00 0.00 0.00 67 1015.7
20260504031543 58 208 0.0 2.0 0.00 0.00 0.00 66 1013.9
20260504030036 58 208 0.0 2.0 0.00 0.00 0.00 67 1014.1
20260504024534 59 248 1.0 3.0 0.00 0.00 0.00 65 1014.0
20260504023033 59 248 0.0 2.0 0.00 0.00 0.00 64 1013.9
20260504021704 61 248 1.0 2.0 0.00 0.00 0.00 62 1015.5
20260504021532 60 248 1.0 3.0 0.00 0.00 0.00 63 1013.7
20260504020029 60 268 0.0 0.0 0.00 0.00 0.00 61 1013.3
20260504014528 61 269 0.0 4.0 0.00 0.00 0.00 61 1013.3
20260504013034 60 306 0.0 4.0 0.00 0.00 0.00 62 1013.1
20260504011800 59 293 3.0 4.0 0.00 0.00 0.00 65 1015.0
20260504011527 59 260 0.0 4.0 0.00 0.00 0.00 64 1013.1
20260504010022 57 265 1.0 4.0 0.00 0.00 0.00 67 1013.2
20260504004526 57 220 0.0 6.0 0.00 0.00 0.00 69 1013.3
20260504003030 57 225 2.0 4.0 0.00 0.00 0.00 69 1013.2
20260504001729 60 0.0 0.0 0.00 0.00 0.00 65 1014.2
20260504001524 59 116 0.0 1.0 0.00 0.00 0.00 66 1012.5
20260504000046 60 115 0.0 2.0 0.00 0.00 0.00 64 1012.6
20260503234518 59 98 2.0 4.0 0.00 0.00 0.00 63 1012.5
20260503233016 58 115 1.0 3.0 0.00 0.00 0.00 66 1012.9
20260503231648 58 293 1.0 1.0 0.00 0.00 0.00 67 1014.6
20260503231515 58 282 0.0 2.0 0.00 0.00 0.00 67 1013.2
20260503230018 58 282 0.0 0.0 0.00 0.00 0.00 68 1013.1
20260503224512 59 282 0.0 1.0 0.00 0.00 0.00 67 1013.0
20260503223010 59 283 0.0 2.0 0.00 0.00 0.00 65 1012.7
20260503221637 60 0.0 0.0 0.00 0.00 0.00 64 1014.1
20260503221507 59 282 0.0 0.0 0.00 0.00 0.00 66 1012.7
20260503220004 60 282 0.0 0.0 0.00 0.00 0.00 64 1012.6
20260503214503 60 281 0.0 1.0 0.00 0.00 0.00 63 1012.6
20260503213004 60 281 0.0 1.0 0.00 0.00 0.00 61 1012.6
20260503211628 62 0.0 0.0 0.00 0.00 0.00 60 1013.4
20260503211503 61 282 0.0 1.0 0.00 0.00 0.00 61 1012.3
20260503210002 61 280 0.0 2.0 0.00 0.00 0.00 60 1012.0
20260503204502 63 286 0.0 1.0 0.00 0.00 0.00 57 1012.2
20260503203001 64 283 0.0 1.0 0.00 0.00 0.00 54 1012.1
20260503201600 65 279 0.0 1.0 0.00 0.00 0.00 52 1012.1
20260503201405 66 0.0 1.0 0.00 0.00 0.00 51 1013.3
20260503200101 66 279 0.0 2.0 0.00 0.00 0.00 51 1012.0
20260503194600 67 279 1.0 2.0 0.00 0.00 0.00 49 1012.0
20260503193058 68 277 0.0 2.0 0.00 0.00 0.00 47 1012.0
20260503191705 69 0.0 0.0 0.00 0.00 0.00 45 1012.7
20260503191604 68 281 0.0 1.0 0.00 0.00 0.00 46 1011.8
20260503184557 69 309 0.0 3.0 0.00 0.00 0.00 42 1011.4
20260503183057 71 221 0.0 2.0 0.00 0.00 0.00 43 1011.3
20260503181632 72 225 2.0 2.0 0.00 0.00 0.00 37 1011.7
20260503181604 72 224 0.0 2.0 0.00 0.00 0.00 37 1011.1
20260503174556 72 228 0.0 2.0 0.00 0.00 0.00 40 1011.0
20260503173100 72 229 1.0 4.0 0.00 0.00 0.00 39 1010.9
20260503171559 73 325 1.0 5.0 0.00 0.00 0.00 39 1010.9
20260503171403 74 248 3.0 5.0 0.00 0.00 0.00 38 1011.6
20260503171358 75 225 2.0 3.0 0.00 0.00 0.00 39 1011.6
20260503081529 65 298 0.0 2.0 0.00 0.00 0.00 56 1016.1
20260503081501 65 293 1.0 2.0 0.00 0.00 0.00 55 1017.2
20260503071514 59 298 0.0 2.0 0.00 0.00 0.00 62 1016.4
20260503071245 58 0.0 1.0 0.00 0.00 0.00 62 1017.5
20260503060109 47 229 0.0 1.0 0.00 0.00 0.00 83 1016.8
20260503054601 43 238 0.0 1.0 0.00 0.00 0.00 81 1016.7
20260503053055 42 237 0.0 1.0 0.00 0.00 0.00 81 1016.6